Showing default

UMBRA-07, 58297

Orbit data source: Space-Track

UMBRA-07, 58297 is a payload satellite owned by Umbra Labs (US) in SSO that was launched on Sat, 11 Nov 2023 UTC via an FALCON 9 launch vehicle from the Air Force Western Test Range (AFWTR). Payloads include a variety of satellites, spacecraft, and rockets equipped with specific instruments for various scientific and technological missions. These include communications satellites like Starlink; space stations such as the ISS; scientific satellites like the Hubble; Earth observation satellites from companies like Planet Labs, Umbra, and HawkEye 360; GPS; miniature CubeSats for education and research; and military/defense satellites.

Loading next visibility...
UMBRA-07 details
Identifier
58297, 2023-174AT
Orbit
SSO
Last TLE update18 hours ago
Origin
Flag of USUmbra Labs (US)
ManufacturerUmbra Labs
MissionOperational Commercial Radar Imaging
Bus & MotorESPASTAR, Unknown motor
Mass84 kg wet, 79 kg dry
Launch date (UTC)
2023-11-11 (1 year ago)
Launch vehicle
FALCON 9
Launch site
Air Force Western Test Range (AFWTR)
Object type
Payload
Rocket body
Debris
Shape & HBRBox + 2 Pan + 1 Dish, 3.8 m
Radar Cross Section0.929 m², Large (>1 m²)

Expand to show TLE details & history

TLE from 18 hours ago
0 UMBRA-07
1 58297U 23174AT  24355.74512189  .00019416  00000-0  14620-2 0  9990
2 58297  97.4354  63.3575 0004573 246.3577 113.7168 15.02532124 61747
Epoch: 2024-12-20T17:52Z
Definitive object data (Epoch: 2024-12-20T17:52:58.531Z)
Latitude-0.00009°
Longitude65.30741°
Altitude563.435 km
Speed7.579 km/s
True Right ascension04h 13m 25s
True Declination0° 00' 00"
Sunlit
Object was in full shadow at TLE epoch
Visualization TLE readout
Latitude69.18935°
Longitude-94.00268°
Altitude573.197 km
Speed7.579 km/s
Apparent Right ascension21h 19m 46s
Apparent Declination22° 23' 14"
Sunlit
Object is in daylight
Visualization observer readout
Local Sidereal Time10:58:44
Azimuth24.974° NE
Elevation-23.558°
Doppler factor1
Orbital elements
Apogee altitude559.253 km
Perigee altitude552.911 km
Semi-major axis6,934.219 km
Eccentricity0.0004573
Inclination97.4354°
RAAN63.3575°
Arg. of periapsis246.3577°
True anomaly113.76477°
Mean anomaly113.7168°
Eccentric anomaly113.74078°
Mean motion3.75878 °/min
BSTAR0.001462
Orbital period95.78 mins
Loading maneuver chart data...
Loading historical data...
Loading historical data...
Loading historical data...
Loading historical data...
Loading historical data...
Loading historical data...
Loading historical data...

UMBRA-07 Visibility forecast

Observer location: undefined°, undefined

Span
Click to sort rows by Start time (UTC) header in descending order
Start Az.
Max El. time (UTC)
Max El. Az.
Max El.
End time (UTC)
End Az.
6 mins2024-12-21 16:50:01.743Z41.664° NE2024-12-21 16:53:01.743Z93.294° ESE22.168°2024-12-21 16:56:01.743Z147.286° SSE
5 mins2024-12-21 18:26:01.743Z329.262° NNW2024-12-21 18:28:01.743Z288.141° WNW21.81°2024-12-21 18:31:01.743Z237.76° WSW
5 mins2024-12-22 05:11:01.743Z199.501° SSW2024-12-22 05:13:01.743Z253.284° W35.034°2024-12-22 05:16:01.743Z329.084° NNW
|